Jackpot Winner Texas Poker

Kini Telah hadir Jackpot SUPER ROYAL FLUSH

Kini Telah hadir Jackpot 2000 (khusus table VIP keatas).

Ikutilah global jackpot yang tersedia di system kami, dengan system jackpot terbaru dan pertama di indonesia, anda dapat membeli jackpot dengan harga 100 rupiah saja dan menangkan hadiahnya hingga puluhan juta rupiah.

Jackpot bukanlah suatu keharusan untuk dibeli, namun kami memberikan suatu fitur tambahan untuk member tercinta dari www.npselalu.net.

Terdapat tiga pilihan harga jackpot yang bisa anda beli yaitu :100,500,1000 dan 2000(khusus table VIP Keatas) rupiah.

Hadiah dari Multi jackpot system www.npselalu.net

  1. full house x 10 harga jackpot yang anda beli.
      (contoH:anda membeli 1000 maka:1000 X10 = 10.000)
  2. four of kind x 250 harga jackpot yang anda beli
      (contoH:anda membeli 1000 maka:1000 X250 = 250.000)
  3. Straight flush x 1200
      (contoH:anda membeli 1000 maka:1000 X1200 = 1.200.000)
  4. Royal flush x 10000 harga jackpot yang anda beli
      (contoH:anda membeli 1000 maka:1000 X10000 = 10.000.000)
  5. SUPER ROYAL FLUSH x 30000 harga jackpot yang anda beli
      (contoH:anda membeli 1000 maka:1000 X30000 = 30.000.000)

Kondisi kartu

  1. full house adalah kondisi kartu dimana kartu anda dan kartu tengah dengan total 7 kartu bisa mendapatkan nilai 5 kartu dengan kombinasi 1 tris(three of kind) dan 1 pair, contoh 3 kartu 10 dan 2 kartu 5
  2. Four of kind adalah kondisi kartu dimana kartu anda dan kartu tengah dengan total 7 kartu bisa mendapatkan nilai 5 kartu dengan kombinasi 4 kartu yang sama jumlah dan 1 kartu apapun juga contoh anda mendapatkan 4 buah kartu angka 3 dan 1 kartu apapun.
  3. Straight flush adalah kondisi kartu dimana kartu anda dan kartu tengah dengan total 7 kartu bisa mendapatkan nilai 5 kartu dengan kombinasi seri / staright dengan kembang yang sama contoh : urutan kartu dari angka 5, 6, 7, 8 , 9 10 dengan kembang yg sama misalnya as hati
  4. Royal flush adalah kondisi kartu dimana kartu anda dan kartu tengah dengan total 7 kartu bisa mendapatkan nilai 5 kartu dengan kombinasi seri / staright dengan kembang yang sama tetapi kartu tersebut haruslah dimulai dari 10. contoh 10, Queen, Jack, King dan aces dengan kembang yang sama
  5. Super Royal flush adalah kondisi kartu dimana Kedua kartu anda digabung dengan 3 kartu pertama meja haruslah royal flush. contoh kartu anda10,Queen dan 3 kartu pertama meja adalah Jack, King dan aces dengan kembang yang sama

Demikian adalah penjelasan dari Multi Jackpot www.npselalu.net terima kasih dan selamat bermain salam hoki dari kami


Jackpot Winner

TOP SUPER ROYAL FLUSH
No.TanggalNamaPriceWin
129/04 16:43ASASASAWAYSuper Royal flush15,000,000
229/04 13:11DWBTMBOO15Super Royal flush30,000,000
328/04 19:46GANA18Super Royal flush3,000,000
428/04 12:18ONAH23Super Royal flush3,000,000
528/04 07:28CHAEL123Super Royal flush15,000,000
TOP ROYAL FLUSH
No.TanggalNamaPriceWin
129/04 18:08KHARISMA1Royal flush10,000,000
229/04 18:04MARQUEZ69Royal flush1,000,000
329/04 17:55RAHMI66Royal flush10,000,000
429/04 17:51ABOTBANGETRoyal flush5,000,000
529/04 17:50ICHALIANORoyal flush1,000,000
TOP STRAIGHT FLUSH
No.TanggalNamaPriceWin
129/04 18:13COMEINK99Straight Flush600,000
229/04 18:13VV1PMMFSBMStraight Flush1,200,000
329/04 18:11YDA12Straight Flush120,000
429/04 18:11ATOZ04Straight Flush1,200,000
529/04 18:11PIJAMCANGEStraight Flush600,000
LATEST JACKPOT
No.TanggalNamaPriceWin
129/04 18:15KEMOY27Full House20,000
229/04 18:15ONNEEFull House5,000
329/04 18:15LUKI010Full House5,000
429/04 18:15ROOMY13Full House1,000
529/04 18:15MARLYN9999Full House5,000
629/04 18:15YMILDD11Full House5,000
729/04 18:15OKTA1998Full House20,000
829/04 18:15OXTA90Full House10,000
929/04 18:15JABO44Four Of A Kind125,000
1029/04 18:15BAGOLCURS1Full House10,000
1129/04 18:15TULUK76Full House1,000
1229/04 18:15TAURUZ02Full House1,000
1329/04 18:15MADIRODOK1Full House5,000
1429/04 18:15LUCKY22Four Of A Kind250,000
1529/04 18:15WAWA1982Full House5,000
1629/04 18:15BNJWD8RME5Full House5,000
1729/04 18:15XXXX07Four Of A Kind250,000
1829/04 18:15BOY2504Full House1,000
1929/04 18:15CKROFull House5,000
2029/04 18:15CHIKA1430Full House10,000
2129/04 18:15ANTOKIDFull House5,000
2229/04 18:15MBOKURFull House10,000
2329/04 18:15ORTHODOXFull House20,000
2429/04 18:15LEMBU1318Full House10,000
2529/04 18:15TEMPUR82Full House1,000
2629/04 18:15PP5NPKB91SFull House1,000
2729/04 18:15DWBT7427Full House20,000
2829/04 18:15MONYANGAJAFull House5,000
2929/04 18:15MY07OKEFull House5,000
3029/04 18:15PULAUKECILFull House1,000
3129/04 18:15PMANBLUESFull House1,000
3229/04 18:15N4F4Full House1,000
3329/04 18:15C54EC4C2Full House1,000
3429/04 18:15D391EEA0Full House5,000
3529/04 18:15XXXX07Full House10,000
3629/04 18:15STL007Full House10,000
3729/04 18:15TONK_KANKFull House1,000
3829/04 18:15B45CF5AAFull House5,000
3929/04 18:15D9D1F819Full House5,000
4029/04 18:15TAJAM989Full House10,000
4129/04 18:15NYATU1Four Of A Kind25,000
4229/04 18:14AUFA87Full House10,000
4329/04 18:14INYU9OLVFSFull House1,000
4429/04 18:14SILUMAN921Full House5,000
4529/04 18:14ASSAFY123Four Of A Kind25,000
4629/04 18:14KAILO88Full House5,000
4729/04 18:14ROCKET13Full House1,000
4829/04 18:14A7A7AN9Full House10,000
4929/04 18:14GAMYA01Full House10,000
5029/04 18:14NENES97Full House5,000
Dewa.FM